Regional Weather Roundup
Issued by NWS

Home | Current Version | Previous Version | Text Only | Print | Product List | Glossary On
Versions: 1 2 3 4 5 6 7 8 9 10 11 12 13 14 15 16 17 18 19 20 21 22 23 24 25 26 27 28 29 30 31 32 33 34 35 36 37 38 39 40 41 42 43 44 45 46 47 48 49 50
000
ASUS43 KMPX 191410
RWRMN
WEATHER ROUNDUP FOR MINNESOTA
NATIONAL WEATHER SERVICE TWIN CITIES/CHANHASSEN MN
900 AM CDT SAT AUG 19 2017


NOTE: "FAIR" INDICATES FEW OR NO CLOUDS BELOW 12,000 FEET WITH NO
SIGNIFICANT WEATHER AND/OR OBSTRUCTIONS TO VISIBILITY. N/A MEANS
CURRENT SKY AND/OR WEATHER CONDITIONS ARE NOT AVAILABLE.

MNZ060>063-068>070-191500-
   Twin Cities Metro

CITY           SKY/WX    TMP DP  RH WIND       PRES   REMARKS
TWIN CITIES    MOSUNNY   63  59  87 SW7       29.96S
ST PAUL        SUNNY     65  62  90 CALM      29.96S
CRYSTAL        SUNNY     67  60  78 SW5       29.95R
BLAINE         SUNNY     68  66  94 CALM      29.95R
LAKEVILLE      CLOUDY    61  61 100 W3        29.97S
EDEN PRAIRIE   FOG       60  59  96 SW6       29.96R VSB<1/4
SOUTH ST PAUL  SUNNY     66  63  89 CALM      29.96R
LAKE ELMO      FAIR      63  63 100 CALM      29.97S FOG
$$
MNZ001>005-007-008-013>017-022>024-027-028-191500-
   Northwest Minnesota

CITY           SKY/WX    TMP DP  RH WIND       PRES   REMARKS
BEMIDJI        SUNNY     65  59  81 SW7       29.90S
HALLOCK        SUNNY     63  59  88 S9        29.81S
ROSEAU         SUNNY     66  59  77 S6        29.83F
WARROAD        SUNNY     64  61  88 SW5       29.84S
THIEF RVR FALL SUNNY     64  58  80 S8        29.87F
CROOKSTON      SUNNY     63  57  82 S8        29.86F
FOSSTON        SUNNY     63  61  94 S7        29.90S
DETROIT LAKES  SUNNY     64  59  82 SW5       29.93S
MOORHEAD       SUNNY     61  57  88 S6        29.90S
PARK RAPIDS    SUNNY     64  62  93 SW5       29.93R
MAHNOMEN       FAIR      63  60  88 S9        29.90S
$$
MNZ006-009>011-018-025>026-191500-
   North Central Minnesota

CITY           SKY/WX    TMP DP  RH WIND       PRES   REMARKS
BAUDETTE       SUNNY     64  58  80 CALM      29.84S
FLAG ISLAND    SUNNY     68  55  64 CALM      29.82S
INTL FALLS     SUNNY     65  59  81 SW5       29.85F
WASKISH        MOSUNNY   66  63  88 SW7       29.87S
BIG FORK       SUNNY     64  63  94 SW3       29.89R
LONGVILLE      SUNNY     63  63 100 SW5       29.92R
GRAND RAPIDS   SUNNY     67  61  81 W5        29.93R
CRANE LAKE     SUNNY     59  57  94 CALM      29.89S
ORR            SUNNY     61  57  88 CALM      29.86S
COOK           SUNNY     63  59  88 CALM      29.89S
WALKER         FAIR      66  60  81 W8        29.91S
$$
MNZ012-019>021-037-191500-
   Northeast Minnesota

CITY           SKY/WX    TMP DP  RH WIND       PRES   REMARKS
DULUTH         SUNNY     66  61  84 NW6       29.91R
ELY            SUNNY     61  59  94 CALM      29.89S
HIBBING        SUNNY     59  59 100 CALM      29.90S
EVELETH        FOG       58  56  93 CALM      29.91S VSB 1/4
DULUTH HARBOR  SUNNY     64  61  88 S9        29.90R
TWO HARBORS    SUNNY     66  61  82 NW3       29.87S
GRAND MARAIS     N/A     69  61  75 VRB5      29.82S
G MARAIS ARPRT SUNNY     66  55  68 CALM      29.88S
$$
MNZ029>031-032-039>041-046>048-054>057-064-191500-
   West Central Minnesota

CITY           SKY/WX    TMP DP  RH WIND       PRES   REMARKS
FERGUS FALLS   SUNNY     64  63  94 S3        29.92F
WHEATON        SUNNY     64  61  88 SE3       29.93F
MORRIS         SUNNY     63  63 100 SE5       29.93F
ALEXANDRIA     SUNNY     66  61  84 SW5       29.97R
ELBOW LAKE     FAIR      63  61  94 E3        29.94F
WADENA         SUNNY     63  63 100 W5        29.93S
GLENWOOD       SUNNY     63  63 100 W6        29.96S
APPLETON       SUNNY     63  61  94 SE3       29.94F
BENSON         FOG       59  57  94 CALM      29.98S VSB 1
ORTONVILLE     SUNNY     63  61  94 MISG      29.94S
MADISON        SUNNY     64  64 100 CALM      29.95S
WILLMAR        CLOUDY    61  61 100 CALM      29.98S
$$
MNZ033>034-036-042>043-049>051-058-059-191500-
   Central Minnesota

CITY           SKY/WX    TMP DP  RH WIND       PRES   REMARKS
ST CLOUD       SUNNY     65  63  93 CALM      29.95S
SAUK CENTRE    FAIR      62  61  97 CALM      29.96S
PAYNESVILLE    SUNNY     64  64 100 CALM      29.97R
AITKIN         SUNNY     63  61  94 W6        29.92S
PINE RIVER     SUNNY     61  61 100 CALM      29.96S
BRAINERD       SUNNY     63  60  90 SW3       29.94R
STAPLES        SUNNY     63  61  94 CALM      29.94S
LONG PRAIRIE   FAIR      61  61 100 SW3       29.96R
LITTLE FALLS   SUNNY     59  59 100 CALM      29.95R
LITCHFIELD     SUNNY     64  63  94 CALM      29.97S
BUFFALO        SUNNY     63  61  94 CALM      29.97S
MAPLE LAKE     SUNNY     63  63  99 CALM      29.97S
HUTCHINSON     FOG       59  59 100 S3        29.98S VSB<1/4
$$
MNZ037-044-045-052-053-191500-
   East Central Minnesota

CITY           SKY/WX    TMP DP  RH WIND       PRES   REMARKS
PRINCETON      SUNNY     64  64 100 CALM      29.95S
MORA           SUNNY     61  59  94 CALM      29.95F
CAMBRIDGE      SUNNY     66  64  94 CALM      29.95S
RUSH CITY      SUNNY     63  62  97 SW3       29.94S
MOOSE LAKE     SUNNY     61  59  94 CALM      29.91S
HINCKLEY       FAIR      61  61 100 CALM      29.93S
CLOQUET        SUNNY     66  59  77 W5        29.91S
MCGREGOR       SUNNY     63  61  94 CALM      29.93S
$$
MNZ071>073-080-081-089-090-097-098-191500-
   Southwest Minnesota

CITY           SKY/WX    TMP DP  RH WIND       PRES   REMARKS
MONTEVIDEO     SUNNY     66  66 100 CALM      29.96S
GRANITE FALLS  FOG       60  60 100 SE5       29.99R VSB<1/4
CANBY          SUNNY     65  59  79 CALM      29.97S
MARSHALL       SUNNY     63  61  93 S5        29.97S
REDWOOD FALLS  FOG       59  58  96 S3        29.97R VSB 1/4
OLIVIA         FOG       57  55  94 SW5       29.97R VSB 1/2
PIPESTONE      FOG       59  57  94 SW3       29.99S VSB<1/4
WINDOM         PTSUNNY   59  57  94 W6        29.99R FOG
WORTHINGTON    SUNNY     61  60  97 CALM      30.00S
JACKSON        SUNNY     61  61 100 CALM      29.99S
TRACY          FOG       61  62 100 SW8       29.98F VSB 1/4
SLAYTON        FOG       58  55  88 CALM      30.01R VSB 1/4
$$
MNZ065>067-074>077-082>085-091>093-191500-
   South Central Minnesota

CITY           SKY/WX    TMP DP  RH WIND       PRES   REMARKS
MANKATO        CLOUDY    61  59  94 S6        29.99R FOG
NEW ULM        FOG       57  55  94 CALM      29.98S VSB 1/4
ST JAMES       CLOUDY    59  59 100 CALM      29.99S FOG
FAIRMONT       SUNNY     62  60  93 CALM      29.99S
GLENCOE        FOG       59  59 100 S6        29.97S VSB 1/4
FARIBAULT      SUNNY     63  63 100 SW5       29.98S
OWATONNA       SUNNY     63  61  94 W3        29.98S
WASECA         SUNNY     59  59 100 SW5       30.00R
ALBERT LEA     SUNNY     66  64  94 CALM      29.98S
$$
MNZ078>079-086>088-094>096-191500-
   Southeast Minnesota

CITY           SKY/WX    TMP DP  RH WIND       PRES   REMARKS
ROCHESTER      SUNNY     65  61  87 SW8       29.99S
RED WING       FOG       61  59  94 CALM      29.96S VSB 3/4
DODGE CENTER   SUNNY     64  59  82 S3        29.98S
WINONA         CLOUDY    57  57 100 CALM      29.98R FOG
AUSTIN         SUNNY     64  59  82 S3        29.98S
PRESTON        SUNNY     63  55  77 CALM      30.00R
$$
ABBREVIATIONS USED IN REMARKS
   TC - TEMPERATURES IN CELSIUS
  WCI - WIND CHILL INDEX
   HX - HEAT INDEX
  VSB - VISIBILITY
$$




USA.gov is the U.S. government's official web portal to all federal, state and local government web resources and services.